W6DSP Weather Reports


Display with metric or nautical units.
time (UTC)temp
F
wind
direction
speed
MPH
gust
MPH
rain 1hr
in
rain 24hr
in
rain mn
in
humidity
%
barometer
mb
20260510194347 65 11 3.0 12.0 0.00 0.06 0.00 30 1018.5
20260510193131 67 130 1.0 8.0 0.00 0.06 0.00 35 1018.5
20260510191916 66 344 3.0 9.0 0.00 0.06 0.00 39 1018.7
20260510190703 65 313 3.0 11.0 0.00 0.06 0.00 32 1018.8
20260510185530 64 306 3.0 11.0 0.00 0.06 0.00 38 1018.8
20260510184254 64 25 3.0 9.0 0.00 0.06 0.00 39 1018.7
20260510183029 65 248 3.0 12.0 0.00 0.06 0.00 32 1018.8
20260510181749 64 344 3.0 12.0 0.00 0.06 0.00 41 1018.7
20260510180522 64 22 1.0 7.0 0.00 0.06 0.00 44 1018.6
20260510175328 63 205 1.0 7.0 0.00 0.06 0.00 35 1018.8
20260510174157 65 333 1.0 7.0 0.00 0.06 0.00 43 1018.9
20260510172955 62 28 3.0 11.0 0.00 0.06 0.00 37 1018.9
20260510171732 62 92 3.0 8.0 0.00 0.06 0.00 42 1018.9
20260510170452 62 19 1.0 11.0 0.00 0.06 0.00 39 1018.7
20260510165220 62 355 3.0 11.0 0.00 0.06 0.00 38 1018.6
20260510164006 62 335 3.0 11.0 0.00 0.06 0.00 44 1018.6
20260510162757 62 32 3.0 9.0 0.00 0.06 0.00 44 1018.5
20260510161530 61 341 1.0 11.0 0.00 0.06 0.00 44 1018.5
20260510160344 61 355 3.0 11.0 0.00 0.06 0.00 41 1018.5
20260510155140 60 30 3.0 11.0 0.00 0.06 0.00 44 1018.6
20260510153942 60 126 4.0 9.0 0.00 0.06 0.00 44 1018.6
20260510152710 59 165 3.0 9.0 0.00 0.06 0.00 45 1018.6
20260510151445 60 42 3.0 9.0 0.00 0.06 0.00 48 1018.5
20260510150212 59 33 3.0 12.0 0.00 0.06 0.00 46 1018.3
20260510145026 58 49 4.0 12.0 0.00 0.06 0.00 47 1018.2
20260510143857 58 142 4.0 12.0 0.00 0.06 0.00 48 1018.1
20260510142652 58 9 3.0 12.0 0.00 0.06 0.00 52 1017.9
20260510141415 57 49 3.0 11.0 0.00 0.06 0.00 52 1017.8
20260510140156 56 119 1.0 7.0 0.00 0.06 0.00 50 1017.8
20260510134951 55 48 3.0 9.0 0.00 0.06 0.00 52 1017.7
20260510133822 54 15 3.0 9.0 0.00 0.06 0.00 59 1017.7
20260510132630 53 105 3.0 9.0 0.00 0.06 0.00 58 1017.3
20260510131434 52 61 3.0 12.0 0.00 0.06 0.00 57 1017.3
20260510130209 52 24 4.0 14.0 0.00 0.06 0.00 59 1017.0
20260510124958 51 31 4.0 14.0 0.00 0.06 0.00 61 1016.7
20260510123817 51 40 3.0 11.0 0.00 0.06 0.00 64 1016.7
20260510122644 50 17 4.0 12.0 0.00 0.06 0.00 63 1016.7
20260510121449 50 43 3.0 12.0 0.00 0.06 0.00 65 1016.7
20260510120243 50 57 4.0 12.0 0.00 0.06 0.00 67 1016.5
20260510115005 49 5 3.0 9.0 0.00 0.06 0.00 68 1016.1
20260510113800 49 57 1.0 9.0 0.00 0.06 0.00 70 1015.7
20260510112624 49 44 3.0 9.0 0.00 0.06 0.00 70 1015.5
20260510111444 50 22 4.0 11.0 0.00 0.06 0.00 70 1015.2
20260510105052 51 343 3.0 9.0 0.00 0.06 0.00 69 1014.8
20260510103851 51 32 3.0 9.0 0.00 0.06 0.00 69 1014.6
20260510102657 52 5 1.0 6.0 0.00 0.06 0.00 69 1014.4
20260510101512 52 5 1.0 4.0 0.00 0.06 0.00 70 1014.2
20260510100259 52 309 1.0 14.0 0.00 0.06 0.00 72 1014.1
20260510095048 51 338 0.0 4.0 0.00 0.06 0.00 77 1013.8
20260510093914 51 344 0.0 0.0 0.00 0.06 0.00 82 1013.6
20260510092639 51 344 0.0 0.0 0.00 0.06 0.00 81 1013.5
20260510091415 51 344 0.0 0.0 0.00 0.06 0.00 80 1013.4
20260510090218 51 344 0.0 0.0 0.00 0.06 0.00 80 1013.3
20260510085008 52 344 0.0 0.0 0.00 0.06 0.00 78 1013.4
20260510083824 52 344 0.0 0.0 0.00 0.06 0.00 80 1013.1
20260510082629 52 344 0.0 0.0 0.00 0.06 0.00 80 1013.1
20260510081412 52 344 0.0 0.0 0.00 0.06 0.00 79 1012.7
20260510080135 52 344 0.0 0.0 0.00 0.06 0.00 80 1012.5
20260510074910 52 344 0.0 0.0 0.00 0.06 0.00 81 1012.2
20260510073643 52 344 0.0 0.0 0.00 0.06 0.00 79 1012.3
20260510072513 52 344 0.0 0.0 0.00 0.06 0.00 79 1012.2
20260510071309 52 344 0.0 0.0 0.00 0.06 0.00 78 1012.1
20260510070039 52 344 0.0 0.0 0.00 0.06 0.00 76 1012.2
20260510064842 52 344 0.0 0.0 0.00 0.06 0.00 78 1012.2
20260510063630 52 344 0.0 0.0 0.00 0.06 0.00 77 1012.2
20260510062444 53 344 0.0 1.0 0.00 0.06 0.00 76 1012.3
20260510061252 53 344 0.0 1.0 0.00 0.06 0.00 75 1012.1
20260510060040 53 344 0.0 0.0 0.00 0.06 0.00 75 1011.8
20260510054829 53 344 0.0 0.0 0.00 0.06 0.00 75 1011.5
20260510053658 53 344 0.0 0.0 0.00 0.06 0.00 74 1011.4
20260510052526 53 344 0.0 0.0 0.00 0.06 0.00 75 1011.3
20260510051344 54 344 0.0 0.0 0.00 0.06 0.00 74 1011.3
20260510050158 55 344 0.0 3.0 0.00 0.06 0.00 67 1011.2
20260510044921 55 59 0.0 4.0 0.00 0.06 0.00 63 1010.9
20260510043752 55 333 0.0 3.0 0.00 0.06 0.00 65 1010.6
20260510042541 55 339 0.0 2.0 0.00 0.06 0.00 67 1010.6
20260510041316 56 283 0.0 6.0 0.00 0.06 0.00 64 1010.5
20260510040126 58 338 1.0 9.0 0.00 0.06 0.00 57 1010.4
20260510034934 58 19 1.0 9.0 0.00 0.06 0.06 57 1010.1
20260510033725 58 340 1.0 7.0 0.00 0.06 0.06 56 1010.0
20260510032451 59 333 3.0 9.0 0.00 0.06 0.06 58 1009.9
20260510031235 59 346 4.0 11.0 0.00 0.06 0.06 58 1009.8
20260510030030 59 0 3.0 11.0 0.00 0.06 0.06 62 1009.6
20260510024831 61 337 3.0 9.0 0.00 0.06 0.06 58 1009.2
20260510023551 61 327 3.0 11.0 0.00 0.06 0.06 58 1008.8
20260510022316 60 343 0.0 11.0 0.00 0.06 0.06 64 1008.4
20260510021057 61 20 0.0 0.0 0.00 0.06 0.06 65 1008.0
20260510015853 58 221 0.0 1.0 0.00 0.06 0.06 74 1007.6
20260510014635 57 229 0.0 0.0 0.00 0.06 0.06 78 1007.4
20260510013408 58 5 0.0 0.0 0.00 0.06 0.06 76 1007.1
20260510012158 58 5 0.0 0.0 0.00 0.06 0.06 76 1006.8
20260510011001 59 11 0.0 2.0 0.00 0.06 0.06 74 1006.8
20260510005730 59 33 0.0 0.0 0.00 0.06 0.06 77 1006.4
20260510004539 61 121 0.0 0.0 0.00 0.06 0.06 77 1006.4
20260510003318 63 207 0.0 0.0 0.00 0.06 0.06 77 1006.1
20260510000916 63 62 0.0 2.0 0.00 0.06 0.06 85 1006.0
20260509235737 64 60 0.0 0.0 0.00 0.06 0.06 82 1005.7
20260509234552 65 103 0.0 1.0 0.00 0.06 0.06 79 1005.7
20260509233351 65 244 0.0 4.0 0.00 0.06 0.06 79 1005.5
20260509232124 65 58 0.0 6.0 0.00 0.06 0.06 81 1005.5
20260509230930 64 99 0.0 4.0 0.00 0.06 0.06 84 1005.4
20260509225702 64 153 0.0 2.0 0.00 0.06 0.06 86 1005.4
20260509224507 64 207 0.0 0.0 0.00 0.06 0.06 87 1005.4
20260509223232 64 79 0.0 1.0 0.00 0.06 0.06 86 1005.3
20260509222046 64 61 0.0 9.0 0.00 0.06 0.06 82 1005.3
20260509220842 62 64 1.0 9.0 0.00 0.06 0.06 85 1005.2
20260509215606 63 46 0.0 7.0 0.13 0.06 0.06 78 1005.1
20260509214412 69 38 1.0 14.0 0.00 0.00 0.00 62 1005.4
20260509213236 70 157 1.0 14.0 0.00 0.00 0.00 59 1004.9
20260509212029 72 46 4.0 15.0 0.00 0.00 0.00 53 1004.9
20260509210805 71 233 3.0 11.0 0.00 0.00 0.00 55 1004.9
20260509205605 71 279 4.0 15.0 0.00 0.00 0.00 58 1005.1
20260509204406 74 271 1.0 9.0 0.00 0.00 0.00 58 1005.2
20260509203225 73 5 3.0 14.0 0.00 0.00 0.00 55 1005.0
20260509202049 74 329 3.0 18.0 0.00 0.01 0.00 54 1005.1
20260509200821 74 336 3.0 18.0 0.00 0.01 0.00 54 1005.3
20260509195624 73 27 4.0 18.0 0.00 0.02 0.00 56 1005.5